Location: Obersdorf
(47.4079°N, 10.2781°E)
Time: 02:36:20
(UTC+02:00)

COSMOS 2251 DEB - Visible Passes

Search period start: 30 June 2022 00:00
Search period end: 10 July 2022 00:00
Orbit: 490 x 579 km, 73.9° (Epoch: 26 June)

Date Brightness Start Highest point End Pass type
(mag) Time Alt. Az. Time Alt. Az. Time Alt. Az.
30 Jun ? 04:32:47 10° SE 04:34:56 14° E 04:37:03 10° ENE visible
01 Jul ? 04:23:04 10° SE 04:25:22 15° E 04:27:40 10° ENE visible
02 Jul ? 04:13:18 10° SE 04:15:47 15° E 04:18:13 10° ENE visible
03 Jul ? 04:03:33 10° SE 04:06:08 16° E 04:08:44 10° ENE visible
04 Jul ? 03:53:45 10° SE 03:56:28 17° E 03:59:10 10° ENE visible
05 Jul ? 03:43:55 10° SE 03:46:46 18° E 03:49:34 10° NE visible
06 Jul ? 03:34:05 10° SE 03:37:01 19° E 03:39:55 10° NE visible
07 Jul ? 03:24:12 10° SSE 03:27:14 20° E 03:30:13 10° NE visible
08 Jul ? 03:14:32 11° SSE 03:17:25 21° E 03:20:29 10° NE visible
08 Jul ? 04:50:22 10° SW 04:54:14 39° WNW 04:58:01 10° N visible
09 Jul ? 03:05:06 13° SE 03:07:33 22° ESE 03:10:42 10° NE visible
09 Jul ? 04:40:35 10° SW 04:44:24 37° WNW 04:48:09 10° N visible
